Location: Zagreb
(45.8000°N, 16.0000°E)
Time: 03:17:30
(UTC+02:00)

deb Explorer IX - All Passes

Search period start: 08 August 2022 00:00
Search period end: 18 August 2022 00:00
Orbit: 531 x 1067 km, 38.8° (Epoch: 07 August)

Date Brightness Start Highest point End Pass type
(mag) Time Alt. Az. Time Alt. Az. Time Alt. Az.
08 Aug - 04:54:49 10° SSE 04:56:56 12° SE 04:59:10 10° ESE visible
08 Aug - 06:37:23 10° SW 06:42:16 32° SSE 06:47:49 10° E daylight
08 Aug - 08:22:37 10° WSW 08:28:17 45° S 08:34:40 10° ESE daylight
08 Aug - 10:08:43 10° W 10:14:29 36° SSW 10:20:45 10° SE daylight
08 Aug - 11:56:08 10° WSW 12:00:21 17° SSW 12:04:40 10° S daylight
09 Aug - 04:25:51 10° SSE 04:27:00 11° SE 04:28:10 10° SE visible
09 Aug - 06:07:36 10° SW 06:12:15 30° SSE 06:17:31 10° E daylight
09 Aug - 07:52:43 10° WSW 07:58:11 44° S 08:04:25 10° ESE daylight
09 Aug - 09:38:43 10° W 09:44:21 36° SSW 09:50:34 10° SE daylight
09 Aug - 11:25:58 10° WSW 11:30:15 18° SSW 11:34:42 10° S daylight
10 Aug - 05:37:51 10° SW 05:42:14 28° SSE 05:47:13 10° E daylight
10 Aug - 07:22:51 10° WSW 07:28:07 43° S 07:34:09 10° ESE daylight
10 Aug - 09:08:46 10° W 09:14:15 36° SSW 09:20:22 10° SE daylight
10 Aug - 10:55:51 10° WSW 11:00:09 19° SSW 11:04:41 10° S daylight
11 Aug - 05:08:09 10° SSW 05:12:15 26° SSE 05:16:55 10° ESE visible
11 Aug - 06:52:59 10° WSW 06:58:02 42° S 07:03:53 10° ESE daylight
11 Aug - 08:38:49 10° WSW 08:44:09 36° SSW 08:50:09 10° SE daylight
11 Aug - 10:25:45 10° WSW 10:30:04 19° SSW 10:34:38 10° SSE daylight
12 Aug - 04:38:26 10° SSW 04:42:17 24° SSE 04:46:37 10° ESE visible
12 Aug - 06:23:09 10° WSW 06:28:00 41° S 06:33:37 10° ESE daylight
12 Aug - 08:08:54 10° WSW 08:14:03 36° SSW 08:19:55 10° SE daylight
12 Aug - 09:55:42 10° WSW 09:59:58 19° SSW 10:04:33 10° SSE daylight
13 Aug - 04:08:44 10° SSW 04:12:20 22° SSE 04:16:19 10° ESE visible
13 Aug - 05:53:20 10° WSW 05:57:58 39° S 06:03:22 10° ESE daylight
13 Aug - 07:39:00 10° WSW 07:43:58 36° S 07:49:40 10° SE daylight
13 Aug - 09:25:41 10° WSW 09:29:53 20° SSW 09:34:26 10° SSE daylight
14 Aug - 03:39:04 10° SSW 03:42:23 20° SSE 03:46:01 10° ESE visible
14 Aug - 05:23:31 10° WSW 05:27:57 37° S 05:33:06 10° ESE visible
14 Aug - 07:09:07 10° WSW 07:13:56 36° S 07:19:26 10° SE daylight
14 Aug - 08:55:41 10° WSW 08:59:49 20° SSW 09:04:19 10° SSE daylight
15 Aug - 03:09:25 10° SSW 03:12:27 18° SSE 03:15:44 10° ESE visible
15 Aug - 04:53:42 10° WSW 04:57:58 36° S 05:02:51 10° ESE visible
15 Aug - 06:39:14 10° WSW 06:43:53 36° S 06:49:12 10° SE daylight
15 Aug - 08:25:43 10° WSW 08:29:44 20° SSW 08:34:10 10° SSE daylight
16 Aug - 02:39:47 10° SSW 02:42:31 17° SSE 02:45:26 10° ESE visible
16 Aug - 04:23:54 10° SW 04:27:59 34° S 04:32:38 10° ESE visible
16 Aug - 06:09:23 10° WSW 06:13:50 35° S 06:18:58 10° SE daylight
16 Aug - 07:55:46 10° WSW 07:59:40 20° SSW 08:04:00 10° SSE daylight
17 Aug - 02:10:10 10° S 02:12:35 15° SSE 02:15:07 10° ESE visible
17 Aug - 03:54:06 10° SW 03:58:01 32° S 04:02:25 10° ESE visible
17 Aug - 05:39:31 10° WSW 05:43:49 35° S 05:48:44 10° ESE daylight
17 Aug - 07:25:50 10° WSW 07:29:39 20° SSW 07:33:50 10° SSE daylight
